Time,TemperatureF,DewpointF,PressureIn,WindDirection,WindDirectionDegrees,WindSpeedMPH,WindSpeedGustMPH,Humidity,HourlyPrecipIn,Conditions,Clouds,dailyrainin,SoftwareType,DateUTC
2013-05-04 00:01:00,53.5,43.1,30.16,East,90,0.4,2.7,68,0.00,,,0.00,WUHU216HW,2013-05-04 04:01:00,
2013-05-04 00:06:00,53.3,43.4,30.16,ENE,68,1.8,2.7,69,0.00,,,0.00,WUHU216HW,2013-05-04 04:06:00,
2013-05-04 00:11:00,53.1,43.7,30.16,NE,45,1.8,3.1,70,0.00,,,0.00,WUHU216HW,2013-05-04 04:11:00,
2013-05-04 00:16:00,52.9,43.5,30.16,SE,135,1.1,3.1,70,0.00,,,0.00,WUHU216HW,2013-05-04 04:16:00,
2013-05-04 00:21:00,52.9,43.5,30.16,NE,45,0.9,2.0,70,0.00,,,0.00,WUHU216HW,2013-05-04 04:21:00,
2013-05-04 00:26:00,52.7,43.7,30.16,East,90,1.3,1.3,71,0.00,,,0.00,WUHU216HW,2013-05-04 04:26:00,
2013-05-04 00:31:00,52.7,44.0,30.15,ENE,68,0.2,2.5,72,0.00,,,0.00,WUHU216HW,2013-05-04 04:31:00,
2013-05-04 00:36:00,52.6,43.8,30.15,ESE,113,2.2,2.5,72,0.00,,,0.00,WUHU216HW,2013-05-04 04:36:00,
2013-05-04 00:41:00,52.6,43.5,30.15,NNE,23,0.9,2.2,71,0.00,,,0.00,WUHU216HW,2013-05-04 04:41:00,
2013-05-04 00:46:00,52.6,43.8,30.15,ENE,68,1.1,2.2,72,0.00,,,0.00,WUHU216HW,2013-05-04 04:46:00,
2013-05-04 00:51:00,52.4,43.7,30.15,ENE,68,1.6,2.0,72,0.00,,,0.00,WUHU216HW,2013-05-04 04:51:00,
2013-05-04 00:56:00,52.2,43.8,30.15,East,90,0.7,2.5,73,0.00,,,0.00,WUHU216HW,2013-05-04 04:56:00,
2013-05-04 01:01:00,52.0,44.4,30.14,ENE,68,1.8,2.5,75,0.00,,,0.00,WUHU216HW,2013-05-04 05:01:00,
2013-05-04 01:06:00,51.8,44.2,30.14,ENE,68,0.7,2.9,75,0.00,,,0.00,WUHU216HW,2013-05-04 05:06:00,
2013-05-04 01:11:00,51.7,44.4,30.14,East,90,2.5,2.9,76,0.00,,,0.00,WUHU216HW,2013-05-04 05:11:00,
2013-05-04 01:16:00,51.7,44.0,30.14,NNE,23,1.1,2.7,75,0.00,,,0.00,WUHU216HW,2013-05-04 05:16:00,
2013-05-04 01:21:00,51.5,44.6,30.13,ENE,68,1.3,2.7,77,0.00,,,0.00,WUHU216HW,2013-05-04 05:21:00,
2013-05-04 01:26:00,51.5,44.2,30.14,ENE,68,0.0,2.2,76,0.00,,,0.00,WUHU216HW,2013-05-04 05:26:00,
2013-05-04 01:31:00,51.5,44.8,30.14,ENE,68,1.8,2.7,78,0.00,,,0.00,WUHU216HW,2013-05-04 05:31:00,
2013-05-04 01:36:00,51.5,44.6,30.13,ENE,68,0.9,2.7,77,0.00,,,0.00,WUHU216HW,2013-05-04 05:36:00,
2013-05-04 01:41:00,51.5,44.8,30.13,ENE,68,0.7,2.2,78,0.00,,,0.00,WUHU216HW,2013-05-04 05:41:00,
2013-05-04 01:46:00,51.3,44.4,30.13,NE,45,0.4,1.8,77,0.00,,,0.00,WUHU216HW,2013-05-04 05:46:00,
2013-05-04 01:51:00,51.5,44.6,30.13,ENE,68,0.4,2.5,77,0.00,,,0.00,WUHU216HW,2013-05-04 05:51:00,
2013-05-04 01:56:00,51.5,44.6,30.13,NE,45,0.7,2.5,77,0.00,,,0.00,WUHU216HW,2013-05-04 05:56:00,
2013-05-04 02:01:00,51.5,44.8,30.13,ESE,113,0.7,2.2,78,0.00,,,0.00,WUHU216HW,2013-05-04 06:01:00,
2013-05-04 02:06:00,51.3,44.6,30.13,ENE,68,1.1,2.2,78,0.00,,,0.00,WUHU216HW,2013-05-04 06:06:00,
2013-05-04 02:11:00,51.3,44.6,30.12,NNE,23,1.6,2.5,78,0.00,,,0.00,WUHU216HW,2013-05-04 06:11:00,
2013-05-04 02:16:00,51.3,44.6,30.12,NE,45,1.1,2.5,78,0.00,,,0.00,WUHU216HW,2013-05-04 06:16:00,
2013-05-04 02:21:00,51.1,44.5,30.12,NE,45,1.1,3.4,78,0.00,,,0.00,WUHU216HW,2013-05-04 06:21:00,
2013-05-04 02:26:00,51.3,44.6,30.12,ENE,68,1.8,3.4,78,0.00,,,0.00,WUHU216HW,2013-05-04 06:26:00,
2013-05-04 02:31:00,51.1,44.5,30.12,NE,45,0.2,2.2,78,0.00,,,0.00,WUHU216HW,2013-05-04 06:31:00,
2013-05-04 02:36:00,51.1,44.5,30.12,ENE,68,0.2,1.8,78,0.00,,,0.00,WUHU216HW,2013-05-04 06:36:00,
2013-05-04 02:41:00,51.3,44.6,30.12,NNE,23,0.7,2.2,78,0.00,,,0.00,WUHU216HW,2013-05-04 06:41:00,
2013-05-04 02:46:00,51.1,44.8,30.12,ENE,68,1.3,2.5,79,0.00,,,0.00,WUHU216HW,2013-05-04 06:46:00,
2013-05-04 02:51:00,51.1,44.5,30.12,NE,45,1.1,2.5,78,0.00,,,0.00,WUHU216HW,2013-05-04 06:51:00,
2013-05-04 02:56:00,51.1,44.8,30.11,NE,45,1.1,2.5,79,0.00,,,0.00,WUHU216HW,2013-05-04 06:56:00,
2013-05-04 03:01:00,51.1,45.2,30.11,ENE,68,1.1,2.7,80,0.00,,,0.00,WUHU216HW,2013-05-04 07:01:00,
2013-05-04 03:06:00,51.1,44.8,30.11,ENE,68,0.4,2.7,79,0.00,,,0.00,WUHU216HW,2013-05-04 07:06:00,
2013-05-04 03:11:00,51.1,45.2,30.11,ENE,68,1.1,2.5,80,0.00,,,0.00,WUHU216HW,2013-05-04 07:11:00,
2013-05-04 03:16:00,51.1,45.2,30.11,ENE,68,2.7,2.7,80,0.00,,,0.00,WUHU216HW,2013-05-04 07:16:00,
2013-05-04 03:21:00,51.1,45.2,30.11,SE,135,2.5,2.7,80,0.00,,,0.00,WUHU216HW,2013-05-04 07:21:00,
2013-05-04 03:26:00,51.1,45.2,30.11,NW,315,0.4,2.7,80,0.00,,,0.00,WUHU216HW,2013-05-04 07:26:00,
2013-05-04 03:31:00,51.1,45.2,30.11,NE,45,1.8,3.8,80,0.00,,,0.00,WUHU216HW,2013-05-04 07:31:00,
2013-05-04 03:36:00,50.9,45.0,30.11,East,90,1.6,3.8,80,0.00,,,0.00,WUHU216HW,2013-05-04 07:36:00,
2013-05-04 03:41:00,51.1,45.2,30.11,ENE,68,1.8,2.5,80,0.00,,,0.00,WUHU216HW,2013-05-04 07:41:00,
2013-05-04 03:46:00,51.1,45.2,30.11,ENE,68,1.6,2.0,80,0.00,,,0.00,WUHU216HW,2013-05-04 07:46:00,
2013-05-04 03:51:00,50.9,45.3,30.11,ENE,68,2.5,2.5,81,0.00,,,0.00,WUHU216HW,2013-05-04 07:51:00,
2013-05-04 03:56:00,50.8,45.1,30.11,NE,45,3.4,3.4,81,0.00,,,0.00,WUHU216HW,2013-05-04 07:56:00,
2013-05-04 04:01:00,50.8,44.8,30.11,NE,45,1.1,3.4,80,0.00,,,0.00,WUHU216HW,2013-05-04 08:01:00,
2013-05-04 04:06:00,50.8,44.8,30.11,ENE,68,1.8,3.4,80,0.00,,,0.00,WUHU216HW,2013-05-04 08:06:00,
2013-05-04 04:11:00,50.8,45.1,30.11,ENE,68,1.1,2.2,81,0.00,,,0.00,WUHU216HW,2013-05-04 08:11:00,
2013-05-04 04:16:00,50.8,45.1,30.11,NE,45,1.8,1.8,81,0.00,,,0.00,WUHU216HW,2013-05-04 08:16:00,
2013-05-04 04:21:00,50.8,45.1,30.11,NE,45,1.8,3.4,81,0.00,,,0.00,WUHU216HW,2013-05-04 08:21:00,
2013-05-04 04:26:00,50.6,44.9,30.11,NE,45,1.8,3.4,81,0.00,,,0.00,WUHU216HW,2013-05-04 08:26:00,
2013-05-04 04:31:00,50.6,45.3,30.11,ENE,68,1.1,2.5,82,0.00,,,0.00,WUHU216HW,2013-05-04 08:31:00,
2013-05-04 04:36:00,50.6,45.3,30.11,NNE,23,0.9,2.5,82,0.00,,,0.00,WUHU216HW,2013-05-04 08:36:00,
2013-05-04 04:41:00,50.6,45.3,30.11,NNE,23,1.3,2.5,82,0.00,,,0.00,WUHU216HW,2013-05-04 08:41:00,
2013-05-04 04:46:00,50.4,45.1,30.10,ESE,113,1.1,2.5,82,0.00,,,0.00,WUHU216HW,2013-05-04 08:46:00,
2013-05-04 04:51:00,50.4,45.1,30.10,ENE,68,0.4,2.0,82,0.00,,,0.00,WUHU216HW,2013-05-04 08:51:00,
2013-05-04 04:56:00,50.4,45.1,30.11,NE,45,1.6,2.0,82,0.00,,,0.00,WUHU216HW,2013-05-04 08:56:00,
2013-05-04 05:01:00,50.4,45.1,30.11,ESE,113,1.6,2.5,82,0.00,,,0.00,WUHU216HW,2013-05-04 09:01:00,
2013-05-04 05:06:00,50.6,45.3,30.11,East,90,1.3,2.5,82,0.00,,,0.00,WUHU216HW,2013-05-04 09:06:00,
2013-05-04 05:11:00,50.6,45.3,30.11,East,90,2.0,2.5,82,0.00,,,0.00,WUHU216HW,2013-05-04 09:11:00,
2013-05-04 05:16:00,50.6,45.3,30.11,NNE,23,1.3,2.0,82,0.00,,,0.00,WUHU216HW,2013-05-04 09:16:00,
2013-05-04 05:21:00,50.6,45.3,30.11,NE,45,0.7,2.5,82,0.00,,,0.00,WUHU216HW,2013-05-04 09:21:00,
2013-05-04 05:26:00,50.4,45.1,30.11,NE,45,1.1,2.5,82,0.00,,,0.00,WUHU216HW,2013-05-04 09:26:00,
2013-05-04 05:31:00,50.4,45.1,30.11,ENE,68,0.4,2.5,82,0.00,,,0.00,WUHU216HW,2013-05-04 09:31:00,
2013-05-04 05:36:00,50.4,45.1,30.11,ENE,68,0.7,1.8,82,0.00,,,0.00,WUHU216HW,2013-05-04 09:36:00,
2013-05-04 05:41:00,50.4,45.1,30.11,ENE,68,0.9,1.8,82,0.00,,,0.00,WUHU216HW,2013-05-04 09:41:00,
2013-05-04 05:46:00,50.4,45.1,30.11,ENE,68,0.7,2.5,82,0.00,,,0.00,WUHU216HW,2013-05-04 09:46:00,
2013-05-04 05:51:00,50.4,45.1,30.11,ENE,68,1.1,2.5,82,0.00,,,0.00,WUHU216HW,2013-05-04 09:51:00,
2013-05-04 05:56:00,50.4,45.4,30.11,East,90,0.9,1.6,83,0.00,,,0.00,WUHU216HW,2013-05-04 09:56:00,
2013-05-04 06:01:00,50.2,45.2,30.11,NE,45,2.2,2.2,83,0.00,,,0.00,WUHU216HW,2013-05-04 10:01:00,
2013-05-04 06:06:00,50.2,45.2,30.11,NNE,23,0.9,2.2,83,0.00,,,0.00,WUHU216HW,2013-05-04 10:06:00,
2013-05-04 06:11:00,50.2,45.2,30.11,ESE,113,0.4,2.2,83,0.00,,,0.00,WUHU216HW,2013-05-04 10:11:00,
2013-05-04 06:16:00,50.2,45.2,30.11,NNE,23,1.1,2.0,83,0.00,,,0.00,WUHU216HW,2013-05-04 10:16:00,
2013-05-04 06:21:00,50.0,45.4,30.11,ENE,68,1.1,2.0,84,0.00,,,0.00,WUHU216HW,2013-05-04 10:21:00,
2013-05-04 06:26:00,50.0,45.4,30.11,ESE,113,1.8,1.8,84,0.00,,,0.00,WUHU216HW,2013-05-04 10:26:00,
2013-05-04 06:31:00,50.0,45.4,30.11,ENE,68,0.7,2.5,84,0.00,,,0.00,WUHU216HW,2013-05-04 10:31:00,
2013-05-04 06:36:00,50.0,45.4,30.11,NE,45,1.3,2.5,84,0.00,,,0.00,WUHU216HW,2013-05-04 10:36:00,
2013-05-04 06:41:00,50.2,45.6,30.11,NNE,23,1.1,1.8,84,0.00,,,0.00,WUHU216HW,2013-05-04 10:41:00,
2013-05-04 06:46:00,50.2,45.6,30.12,NNE,23,0.7,2.2,84,0.00,,,0.00,WUHU216HW,2013-05-04 10:46:00,
2013-05-04 06:51:00,50.2,45.6,30.12,East,90,2.0,2.5,84,0.00,,,0.00,WUHU216HW,2013-05-04 10:51:00,
2013-05-04 06:56:00,50.2,45.6,30.12,NNE,23,0.4,2.5,84,0.00,,,0.00,WUHU216HW,2013-05-04 10:56:00,
2013-05-04 07:01:00,50.2,45.6,30.12,ENE,68,1.1,2.9,84,0.00,,,0.00,WUHU216HW,2013-05-04 11:01:00,
2013-05-04 07:06:00,50.2,45.6,30.12,NE,45,2.5,2.9,84,0.00,,,0.00,WUHU216HW,2013-05-04 11:06:00,
2013-05-04 07:11:00,50.2,45.6,30.12,NE,45,0.7,2.9,84,0.00,,,0.00,WUHU216HW,2013-05-04 11:11:00,
2013-05-04 07:16:00,50.2,45.6,30.12,ENE,68,1.8,3.4,84,0.00,,,0.00,WUHU216HW,2013-05-04 11:16:00,
2013-05-04 07:21:00,50.4,46.0,30.12,ENE,68,1.6,3.4,85,0.00,,,0.00,WUHU216HW,2013-05-04 11:21:00,
2013-05-04 07:26:00,50.2,45.6,30.12,ENE,68,1.6,3.1,84,0.00,,,0.00,WUHU216HW,2013-05-04 11:26:00,
2013-05-04 07:31:00,50.4,45.7,30.12,SE,135,1.8,4.0,84,0.00,,,0.00,WUHU216HW,2013-05-04 11:31:00,
2013-05-04 07:36:00,50.2,45.6,30.12,ENE,68,1.8,4.0,84,0.00,,,0.00,WUHU216HW,2013-05-04 11:36:00,
2013-05-04 07:41:00,50.2,45.6,30.12,ENE,68,1.1,4.0,84,0.00,,,0.00,WUHU216HW,2013-05-04 11:41:00,
2013-05-04 07:46:00,50.4,45.7,30.12,East,90,2.7,4.0,84,0.00,,,0.00,WUHU216HW,2013-05-04 11:46:00,
2013-05-04 07:51:00,50.4,45.7,30.13,East,90,1.1,3.1,84,0.00,,,0.00,WUHU216HW,2013-05-04 11:51:00,
2013-05-04 07:56:00,50.6,45.9,30.12,NE,45,0.4,3.1,84,0.00,,,0.00,WUHU216HW,2013-05-04 11:56:00,
2013-05-04 08:01:00,50.6,45.9,30.13,NE,45,1.3,3.6,84,0.00,,,0.00,WUHU216HW,2013-05-04 12:01:00,
2013-05-04 08:06:00,50.8,46.1,30.13,ESE,113,2.2,3.6,84,0.00,,,0.00,WUHU216HW,2013-05-04 12:06:00,
2013-05-04 08:11:00,50.8,46.1,30.13,NE,45,1.1,2.5,84,0.00,,,0.00,WUHU216HW,2013-05-04 12:11:00,
2013-05-04 08:17:00,50.8,46.1,30.13,SE,135,1.1,2.5,84,0.00,,,0.00,WUHU216HW,2013-05-04 12:17:00,
2013-05-04 08:22:00,50.9,46.3,30.13,North,0,1.1,2.7,84,0.00,,,0.00,WUHU216HW,2013-05-04 12:22:00,
2013-05-04 08:27:00,50.9,46.3,30.13,ENE,68,0.2,2.7,84,0.00,,,0.00,WUHU216HW,2013-05-04 12:27:00,
2013-05-04 08:32:00,50.9,46.3,30.13,NE,45,0.9,2.5,84,0.00,,,0.00,WUHU216HW,2013-05-04 12:32:00,
2013-05-04 08:37:00,51.1,46.1,30.13,NE,45,1.3,2.5,83,0.00,,,0.00,WUHU216HW,2013-05-04 12:37:00,
2013-05-04 08:42:00,51.1,46.1,30.13,ENE,68,1.6,3.4,83,0.00,,,0.00,WUHU216HW,2013-05-04 12:42:00,
2013-05-04 08:47:00,51.3,46.3,30.13,ENE,68,0.4,3.4,83,0.00,,,0.00,WUHU216HW,2013-05-04 12:47:00,
2013-05-04 08:52:00,51.5,46.4,30.13,East,90,1.8,2.5,83,0.00,,,0.00,WUHU216HW,2013-05-04 12:52:00,
2013-05-04 08:57:00,51.7,46.6,30.13,NE,45,0.4,2.0,83,0.00,,,0.00,WUHU216HW,2013-05-04 12:57:00,
2013-05-04 09:02:00,51.8,46.5,30.13,NE,45,0.9,2.7,82,0.00,,,0.00,WUHU216HW,2013-05-04 13:02:00,
2013-05-04 09:03:00,51.8,46.5,30.13,East,90,1.1,2.7,82,0.00,,,0.00,WUHU216HW,2013-05-04 13:03:00,
2013-05-04 09:08:00,52.2,46.9,30.13,NE,45,0.9,2.7,82,0.00,,,0.00,WUHU216HW,2013-05-04 13:08:00,
2013-05-04 09:13:00,52.2,46.9,30.12,East,90,3.4,3.4,82,0.00,,,0.00,WUHU216HW,2013-05-04 13:13:00,
2013-05-04 09:18:00,52.6,47.3,30.12,ESE,113,2.0,4.0,82,0.00,,,0.00,WUHU216HW,2013-05-04 13:18:00,
2013-05-04 09:23:00,52.7,47.1,30.12,ENE,68,2.2,4.0,81,0.00,,,0.00,WUHU216HW,2013-05-04 13:23:00,
2013-05-04 09:28:00,53.1,47.2,30.12,ENE,68,2.0,4.7,80,0.00,,,0.00,WUHU216HW,2013-05-04 13:28:00,
2013-05-04 09:33:00,53.3,47.3,30.12,NNE,23,1.8,4.7,80,0.00,,,0.00,WUHU216HW,2013-05-04 13:33:00,
2013-05-04 09:38:00,53.5,47.2,30.12,NNE,23,2.5,4.3,79,0.00,,,0.00,WUHU216HW,2013-05-04 13:38:00,
2013-05-04 09:43:00,53.5,46.8,30.12,ENE,68,0.9,3.4,78,0.00,,,0.00,WUHU216HW,2013-05-04 13:43:00,
2013-05-04 09:48:00,53.6,47.3,30.12,ENE,68,2.7,3.4,79,0.00,,,0.00,WUHU216HW,2013-05-04 13:48:00,
2013-05-04 09:53:00,53.6,47.0,30.12,ENE,68,1.8,3.6,78,0.00,,,0.00,WUHU216HW,2013-05-04 13:53:00,
2013-05-04 09:59:00,53.6,47.0,30.12,NNE,23,2.9,4.5,78,0.00,,,0.00,WUHU216HW,2013-05-04 13:59:00,
2013-05-04 10:04:00,53.6,47.3,30.12,NE,45,3.4,4.5,79,0.00,,,0.00,WUHU216HW,2013-05-04 14:04:00,
2013-05-04 10:09:00,53.8,47.5,30.12,North,0,1.3,3.8,79,0.00,,,0.00,WUHU216HW,2013-05-04 14:09:00,
2013-05-04 10:14:00,54.2,47.5,30.12,NE,45,1.6,3.8,78,0.00,,,0.00,WUHU216HW,2013-05-04 14:14:00,
2013-05-04 10:19:00,54.2,47.5,30.12,NNE,23,2.0,4.0,78,0.00,,,0.00,WUHU216HW,2013-05-04 14:19:00,
2013-05-04 10:24:00,54.0,47.0,30.12,ESE,113,1.1,4.0,77,0.00,,,0.00,WUHU216HW,2013-05-04 14:24:00,
2013-05-04 10:29:00,54.4,47.3,30.12,SSE,158,3.1,3.8,77,0.00,,,0.00,WUHU216HW,2013-05-04 14:29:00,
2013-05-04 10:34:00,54.4,47.3,30.12,East,90,2.0,3.8,77,0.00,,,0.00,WUHU216HW,2013-05-04 14:34:00,
2013-05-04 10:39:00,54.5,47.8,30.12,ESE,113,3.8,3.8,78,0.00,,,0.00,WUHU216HW,2013-05-04 14:39:00,
2013-05-04 10:44:00,54.9,47.8,30.12,ESE,113,2.5,4.3,77,0.00,,,0.00,WUHU216HW,2013-05-04 14:44:00,
2013-05-04 10:49:00,55.1,47.6,30.12,NE,45,1.8,4.3,76,0.00,,,0.00,WUHU216HW,2013-05-04 14:49:00,
2013-05-04 10:54:00,55.3,47.8,30.12,ESE,113,2.2,3.4,76,0.00,,,0.00,WUHU216HW,2013-05-04 14:54:00,
2013-05-04 10:59:00,55.4,48.0,30.12,NE,45,1.1,3.8,76,0.00,,,0.00,WUHU216HW,2013-05-04 14:59:00,
2013-05-04 11:04:00,55.6,48.2,30.12,SE,135,2.5,3.8,76,0.00,,,0.00,WUHU216HW,2013-05-04 15:04:00,
2013-05-04 11:09:00,55.8,47.6,30.11,ENE,68,2.5,4.0,74,0.00,,,0.00,WUHU216HW,2013-05-04 15:09:00,
2013-05-04 11:14:00,55.8,47.6,30.11,ENE,68,1.1,4.0,74,0.00,,,0.00,WUHU216HW,2013-05-04 15:14:00,
2013-05-04 11:19:00,56.0,47.4,30.11,SE,135,0.4,5.4,73,0.00,,,0.00,WUHU216HW,2013-05-04 15:19:00,
2013-05-04 11:24:00,56.3,47.8,30.11,ENE,68,2.5,5.4,73,0.00,,,0.00,WUHU216HW,2013-05-04 15:24:00,
2013-05-04 11:29:00,56.5,47.6,30.11,ENE,68,2.9,4.3,72,0.00,,,0.00,WUHU216HW,2013-05-04 15:29:00,
2013-05-04 11:34:00,56.9,48.2,30.11,East,90,2.2,8.5,73,0.00,,,0.00,WUHU216HW,2013-05-04 15:34:00,
2013-05-04 11:39:00,57.2,48.2,30.11,ESE,113,1.8,8.5,72,0.00,,,0.00,WUHU216HW,2013-05-04 15:39:00,
2013-05-04 11:44:00,57.8,48.1,30.11,ENE,68,2.0,5.6,70,0.00,,,0.00,WUHU216HW,2013-05-04 15:44:00,
2013-05-04 11:49:00,57.8,47.7,30.11,ENE,68,2.5,5.4,69,0.00,,,0.00,WUHU216HW,2013-05-04 15:49:00,
2013-05-04 11:54:00,57.8,48.1,30.11,ENE,68,1.1,5.4,70,0.00,,,0.00,WUHU216HW,2013-05-04 15:54:00,
2013-05-04 11:59:00,58.1,48.4,30.11,ESE,113,3.1,4.0,70,0.00,,,0.00,WUHU216HW,2013-05-04 15:59:00,
2013-05-04 12:04:00,58.9,49.1,30.11,East,90,2.2,3.4,70,0.00,,,0.00,WUHU216HW,2013-05-04 16:04:00,
2013-05-04 12:09:00,59.2,48.7,30.11,East,90,2.5,4.9,68,0.00,,,0.00,WUHU216HW,2013-05-04 16:09:00,
2013-05-04 12:14:00,59.4,48.9,30.10,ENE,68,1.6,4.9,68,0.00,,,0.00,WUHU216HW,2013-05-04 16:14:00,
2013-05-04 12:19:00,59.8,49.2,30.10,NNE,23,1.8,4.3,68,0.00,,,0.00,WUHU216HW,2013-05-04 16:19:00,
2013-05-04 12:24:00,59.8,48.0,30.10,NE,45,2.5,4.0,65,0.00,,,0.00,WUHU216HW,2013-05-04 16:24:00,
2013-05-04 12:29:00,59.4,47.6,30.10,ENE,68,3.6,4.9,65,0.00,,,0.00,WUHU216HW,2013-05-04 16:29:00,
2013-05-04 12:34:00,59.4,48.1,30.09,North,0,1.8,4.9,66,0.00,,,0.00,WUHU216HW,2013-05-04 16:34:00,
2013-05-04 12:39:00,59.6,48.3,30.09,NE,45,1.8,4.0,66,0.00,,,0.00,WUHU216HW,2013-05-04 16:39:00,
2013-05-04 12:44:00,59.6,48.6,30.09,NE,45,1.1,4.0,67,0.00,,,0.00,WUHU216HW,2013-05-04 16:44:00,
2013-05-04 12:49:00,59.9,49.4,30.09,NE,45,2.9,3.4,68,0.00,,,0.00,WUHU216HW,2013-05-04 16:49:00,
2013-05-04 12:54:00,60.1,49.6,30.09,East,90,1.1,2.9,68,0.00,,,0.00,WUHU216HW,2013-05-04 16:54:00,
2013-05-04 12:59:00,60.7,50.1,30.08,SE,135,1.1,2.9,68,0.00,,,0.00,WUHU216HW,2013-05-04 16:59:00,
2013-05-04 13:04:00,60.8,50.3,30.08,ESE,113,1.8,2.9,68,0.00,,,0.00,WUHU216HW,2013-05-04 17:04:00,
2013-05-04 13:09:00,60.8,49.1,30.08,ESE,113,2.0,4.0,65,0.00,,,0.00,WUHU216HW,2013-05-04 17:09:00,
2013-05-04 13:14:00,60.8,49.5,30.08,ENE,68,2.5,4.0,66,0.00,,,0.00,WUHU216HW,2013-05-04 17:14:00,
2013-05-04 13:19:00,61.4,50.0,30.07,NE,45,2.5,4.0,66,0.00,,,0.00,WUHU216HW,2013-05-04 17:19:00,
2013-05-04 13:24:00,61.9,50.9,30.07,ESE,113,3.6,4.0,67,0.00,,,0.00,WUHU216HW,2013-05-04 17:24:00,
2013-05-04 13:29:00,62.3,50.3,30.07,ESE,113,3.6,4.3,65,0.00,,,0.00,WUHU216HW,2013-05-04 17:29:00,
2013-05-04 13:34:00,62.3,50.8,30.07,ESE,113,3.6,4.3,66,0.00,,,0.00,WUHU216HW,2013-05-04 17:34:00,
2013-05-04 13:39:00,62.5,50.5,30.07,ESE,113,3.8,4.3,65,0.00,,,0.00,WUHU216HW,2013-05-04 17:39:00,
2013-05-04 13:44:00,62.3,50.3,30.07,ENE,68,2.2,4.3,65,0.00,,,0.00,WUHU216HW,2013-05-04 17:44:00,
2013-05-04 13:49:00,62.3,50.3,30.07,NE,45,2.0,3.8,65,0.00,,,0.00,WUHU216HW,2013-05-04 17:49:00,
2013-05-04 13:54:00,62.3,50.8,30.07,East,90,1.8,3.6,66,0.00,,,0.00,WUHU216HW,2013-05-04 17:54:00,
2013-05-04 13:59:00,62.3,50.8,30.07,ENE,68,2.0,2.9,66,0.00,,,0.00,WUHU216HW,2013-05-04 17:59:00,
2013-05-04 14:04:00,62.1,50.6,30.07,ESE,113,1.1,2.9,66,0.00,,,0.00,WUHU216HW,2013-05-04 18:04:00,
2013-05-04 14:09:00,62.1,51.0,30.07,East,90,1.8,3.8,67,0.00,,,0.00,WUHU216HW,2013-05-04 18:09:00,
2013-05-04 14:14:00,62.5,51.0,30.06,ENE,68,2.2,4.0,66,0.00,,,0.00,WUHU216HW,2013-05-04 18:14:00,
2013-05-04 14:19:00,63.0,50.2,30.06,East,90,4.0,7.6,63,0.00,,,0.00,WUHU216HW,2013-05-04 18:19:00,
2013-05-04 14:24:00,63.0,50.6,30.06,East,90,0.4,7.6,64,0.00,,,0.00,WUHU216HW,2013-05-04 18:24:00,
2013-05-04 14:29:00,63.2,51.2,30.06,NNE,23,0.9,5.1,65,0.00,,,0.00,WUHU216HW,2013-05-04 18:29:00,
2013-05-04 14:34:00,63.2,51.2,30.06,NE,45,0.9,3.4,65,0.00,,,0.00,WUHU216HW,2013-05-04 18:34:00,
2013-05-04 14:39:00,63.2,51.2,30.06,ENE,68,1.8,3.6,65,0.00,,,0.00,WUHU216HW,2013-05-04 18:39:00,
2013-05-04 14:44:00,63.4,51.4,30.06,East,90,2.0,3.6,65,0.00,,,0.00,WUHU216HW,2013-05-04 18:44:00,
2013-05-04 14:49:00,63.5,51.6,30.06,NE,45,1.1,4.5,65,0.00,,,0.00,WUHU216HW,2013-05-04 18:49:00,
2013-05-04 14:54:00,63.7,52.1,30.06,North,0,1.8,4.5,66,0.00,,,0.00,WUHU216HW,2013-05-04 18:54:00,
2013-05-04 14:59:00,63.7,51.7,30.06,ESE,113,2.0,4.5,65,0.00,,,0.00,WUHU216HW,2013-05-04 18:59:00,
2013-05-04 15:04:00,63.9,51.0,30.06,ENE,68,3.6,4.5,63,0.00,,,0.00,WUHU216HW,2013-05-04 19:04:00,
2013-05-04 15:09:00,63.7,51.7,30.06,ENE,68,3.4,3.6,65,0.00,,,0.00,WUHU216HW,2013-05-04 19:09:00,
2013-05-04 15:14:00,63.5,51.6,30.05,NE,45,1.6,3.8,65,0.00,,,0.00,WUHU216HW,2013-05-04 19:14:00,
2013-05-04 15:19:00,63.4,51.4,30.05,NE,45,2.5,3.8,65,0.00,,,0.00,WUHU216HW,2013-05-04 19:19:00,
2013-05-04 15:24:00,63.5,51.6,30.05,ESE,113,0.4,5.1,65,0.00,,,0.00,WUHU216HW,2013-05-04 19:24:00,
2013-05-04 15:29:00,64.3,52.2,30.04,ENE,68,2.7,5.1,65,0.00,,,0.00,WUHU216HW,2013-05-04 19:29:00,
2013-05-04 15:34:00,64.6,52.1,30.04,ENE,68,2.2,4.7,64,0.00,,,0.00,WUHU216HW,2013-05-04 19:34:00,
2013-05-04 15:39:00,65.0,51.6,30.04,NNE,23,2.5,5.1,62,0.00,,,0.00,WUHU216HW,2013-05-04 19:39:00,
2013-05-04 15:44:00,65.0,51.6,30.04,ENE,68,2.2,5.1,62,0.00,,,0.00,WUHU216HW,2013-05-04 19:44:00,
2013-05-04 15:49:00,65.0,52.0,30.03,East,90,4.0,4.9,63,0.00,,,0.00,WUHU216HW,2013-05-04 19:49:00,
2013-05-04 15:54:00,65.0,52.0,30.03,East,90,4.7,4.7,63,0.00,,,0.00,WUHU216HW,2013-05-04 19:54:00,
2013-05-04 15:59:00,65.2,51.8,30.03,NNE,23,2.5,6.3,62,0.00,,,0.00,WUHU216HW,2013-05-04 19:59:00,
2013-05-04 16:04:00,65.3,51.9,30.03,ENE,68,1.3,6.3,62,0.00,,,0.00,WUHU216HW,2013-05-04 20:04:00,
2013-05-04 16:09:00,65.3,51.6,30.03,ENE,68,1.8,4.7,61,0.00,,,0.00,WUHU216HW,2013-05-04 20:09:00,
2013-05-04 16:14:00,64.8,51.0,30.03,NE,45,2.7,5.4,61,0.00,,,0.00,WUHU216HW,2013-05-04 20:14:00,
2013-05-04 16:19:00,64.6,51.7,30.03,ENE,68,3.1,5.4,63,0.00,,,0.00,WUHU216HW,2013-05-04 20:19:00,
2013-05-04 16:24:00,64.4,51.9,30.03,SE,135,2.5,3.8,64,0.00,,,0.00,WUHU216HW,2013-05-04 20:24:00,
2013-05-04 16:29:00,64.4,52.4,30.03,East,90,1.6,4.7,65,0.00,,,0.00,WUHU216HW,2013-05-04 20:29:00,
2013-05-04 16:34:00,64.4,52.4,30.03,East,90,3.1,4.7,65,0.00,,,0.00,WUHU216HW,2013-05-04 20:34:00,
2013-05-04 16:39:00,64.3,51.8,30.02,ENE,68,3.1,4.3,64,0.00,,,0.00,WUHU216HW,2013-05-04 20:39:00,
2013-05-04 16:44:00,64.1,52.0,30.03,NE,45,2.0,5.1,65,0.00,,,0.00,WUHU216HW,2013-05-04 20:44:00,
2013-05-04 16:49:00,64.1,52.0,30.03,North,0,1.6,5.1,65,0.00,,,0.00,WUHU216HW,2013-05-04 20:49:00,
2013-05-04 16:54:00,64.1,52.0,30.03,ENE,68,3.6,5.1,65,0.00,,,0.00,WUHU216HW,2013-05-04 20:54:00,
2013-05-04 16:59:00,64.3,52.2,30.02,ENE,68,3.4,4.7,65,0.00,,,0.00,WUHU216HW,2013-05-04 20:59:00,
2013-05-04 17:04:00,64.3,52.2,30.02,ESE,113,1.1,4.7,65,0.00,,,0.00,WUHU216HW,2013-05-04 21:04:00,
2013-05-04 17:09:00,64.4,52.8,30.02,ENE,68,2.7,4.5,66,0.00,,,0.00,WUHU216HW,2013-05-04 21:09:00,
2013-05-04 17:14:00,64.1,52.0,30.03,ENE,68,2.9,5.4,65,0.00,,,0.00,WUHU216HW,2013-05-04 21:14:00,
2013-05-04 17:19:00,63.7,52.1,30.03,ENE,68,2.5,6.5,66,0.00,,,0.00,WUHU216HW,2013-05-04 21:19:00,
2013-05-04 17:24:00,63.4,51.8,30.03,ENE,68,3.4,6.5,66,0.00,,,0.00,WUHU216HW,2013-05-04 21:24:00,
2013-05-04 17:29:00,63.2,51.6,30.02,ESE,113,2.9,4.5,66,0.00,,,0.00,WUHU216HW,2013-05-04 21:29:00,
2013-05-04 17:34:00,63.4,52.2,30.03,East,90,0.9,4.7,67,0.00,,,0.00,WUHU216HW,2013-05-04 21:34:00,
2013-05-04 17:39:00,63.0,51.8,30.03,ENE,68,1.1,4.7,67,0.00,,,0.00,WUHU216HW,2013-05-04 21:39:00,
2013-05-04 17:44:00,62.6,51.5,30.03,NE,45,1.6,5.4,67,0.00,,,0.00,WUHU216HW,2013-05-04 21:44:00,
2013-05-04 17:49:00,62.6,51.5,30.03,ENE,68,3.1,5.4,67,0.00,,,0.00,WUHU216HW,2013-05-04 21:49:00,
2013-05-04 17:54:00,62.3,51.2,30.04,NNE,23,2.2,4.0,67,0.00,,,0.00,WUHU216HW,2013-05-04 21:54:00,
2013-05-04 17:59:00,62.1,51.4,30.04,ENE,68,2.5,2.9,68,0.00,,,0.00,WUHU216HW,2013-05-04 21:59:00,
2013-05-04 18:04:00,61.9,51.3,30.04,East,90,2.7,3.4,68,0.00,,,0.00,WUHU216HW,2013-05-04 22:04:00,
2013-05-04 18:09:00,61.9,51.7,30.03,NE,45,2.5,3.4,69,0.00,,,0.00,WUHU216HW,2013-05-04 22:09:00,
2013-05-04 18:14:00,61.4,51.2,30.03,ENE,68,3.4,4.7,69,0.00,,,0.00,WUHU216HW,2013-05-04 22:14:00,
2013-05-04 18:19:00,61.0,50.9,30.03,North,0,1.6,4.7,69,0.00,,,0.00,WUHU216HW,2013-05-04 22:19:00,
2013-05-04 18:24:00,60.8,50.7,30.03,ENE,68,1.6,5.1,69,0.00,,,0.00,WUHU216HW,2013-05-04 22:24:00,
2013-05-04 18:29:00,60.7,50.9,30.03,NE,45,4.0,5.1,70,0.00,,,0.00,WUHU216HW,2013-05-04 22:29:00,
2013-05-04 18:34:00,60.5,50.8,30.03,East,90,1.3,4.9,70,0.00,,,0.00,WUHU216HW,2013-05-04 22:34:00,
2013-05-04 18:39:00,60.3,50.9,30.03,ENE,68,2.9,4.3,71,0.00,,,0.00,WUHU216HW,2013-05-04 22:39:00,
2013-05-04 18:44:00,60.1,50.8,30.03,NE,45,1.8,3.8,71,0.00,,,0.00,WUHU216HW,2013-05-04 22:44:00,
2013-05-04 18:49:00,60.1,50.8,30.03,East,90,1.8,3.1,71,0.00,,,0.00,WUHU216HW,2013-05-04 22:49:00,
2013-05-04 18:54:00,60.1,50.8,30.03,North,0,0.4,2.9,71,0.00,,,0.00,WUHU216HW,2013-05-04 22:54:00,
2013-05-04 18:59:00,60.1,51.1,30.04,ESE,113,2.0,2.2,72,0.00,,,0.00,WUHU216HW,2013-05-04 22:59:00,
2013-05-04 19:04:00,59.8,50.8,30.04,SE,135,2.2,3.4,72,0.00,,,0.00,WUHU216HW,2013-05-04 23:04:00,
2013-05-04 19:09:00,59.6,50.6,30.04,ESE,113,2.2,3.4,72,0.00,,,0.00,WUHU216HW,2013-05-04 23:09:00,
2013-05-04 19:14:00,59.6,50.9,30.03,ENE,68,1.1,3.1,73,0.00,,,0.00,WUHU216HW,2013-05-04 23:14:00,
2013-05-04 19:19:00,59.4,50.8,30.03,East,90,1.1,2.5,73,0.00,,,0.00,WUHU216HW,2013-05-04 23:19:00,
2013-05-04 19:24:00,59.4,50.8,30.04,ENE,68,1.3,2.2,73,0.00,,,0.00,WUHU216HW,2013-05-04 23:24:00,
2013-05-04 19:29:00,59.4,50.8,30.04,NE,45,0.4,1.3,73,0.00,,,0.00,WUHU216HW,2013-05-04 23:29:00,
2013-05-04 19:34:00,59.4,50.8,30.04,ESE,113,0.4,2.5,73,0.00,,,0.00,WUHU216HW,2013-05-04 23:34:00,
2013-05-04 19:39:00,59.4,50.8,30.04,East,90,1.6,2.7,73,0.00,,,0.00,WUHU216HW,2013-05-04 23:39:00,
2013-05-04 19:44:00,59.2,50.6,30.04,ENE,68,0.4,2.7,73,0.00,,,0.00,WUHU216HW,2013-05-04 23:44:00,
2013-05-04 19:49:00,59.2,50.6,30.04,East,90,0.9,2.7,73,0.00,,,0.00,WUHU216HW,2013-05-04 23:49:00,
2013-05-04 19:54:00,59.2,50.6,30.05,ESE,113,1.3,2.7,73,0.00,,,0.00,WUHU216HW,2013-05-04 23:54:00,
2013-05-04 19:59:00,59.2,50.6,30.05,ENE,68,0.9,2.2,73,0.00,,,0.00,WUHU216HW,2013-05-04 23:59:00,
2013-05-04 20:04:00,59.0,50.4,30.05,ENE,68,1.6,2.2,73,0.00,,,0.00,WUHU216HW,2013-05-05 00:04:00,
2013-05-04 20:09:00,59.0,50.4,30.05,ENE,68,0.9,2.9,73,0.00,,,0.00,WUHU216HW,2013-05-05 00:09:00,
2013-05-04 20:14:00,58.9,50.2,30.05,ESE,113,0.7,2.9,73,0.00,,,0.00,WUHU216HW,2013-05-05 00:14:00,
2013-05-04 20:19:00,58.9,50.6,30.05,ENE,68,0.4,2.0,74,0.00,,,0.00,WUHU216HW,2013-05-05 00:19:00,
2013-05-04 20:24:00,58.9,50.6,30.05,East,90,1.6,2.5,74,0.00,,,0.00,WUHU216HW,2013-05-05 00:24:00,
2013-05-04 20:29:00,58.7,50.4,30.05,NE,45,1.1,2.5,74,0.00,,,0.00,WUHU216HW,2013-05-05 00:29:00,
2013-05-04 20:34:00,58.7,50.4,30.05,NE,45,0.9,2.2,74,0.00,,,0.00,WUHU216HW,2013-05-05 00:34:00,
2013-05-04 20:39:00,58.7,50.4,30.05,NE,45,0.7,2.2,74,0.00,,,0.00,WUHU216HW,2013-05-05 00:39:00,
2013-05-04 20:44:00,58.7,50.4,30.06,East,90,1.1,2.5,74,0.00,,,0.00,WUHU216HW,2013-05-05 00:44:00,
2013-05-04 20:49:00,58.7,50.4,30.06,East,90,0.4,2.7,74,0.00,,,0.00,WUHU216HW,2013-05-05 00:49:00,
2013-05-04 20:54:00,58.5,50.2,30.06,East,90,2.2,2.7,74,0.00,,,0.00,WUHU216HW,2013-05-05 00:54:00,
2013-05-04 20:59:00,58.5,50.2,30.06,NE,45,1.8,2.7,74,0.00,,,0.00,WUHU216HW,2013-05-05 00:59:00,
2013-05-04 21:04:00,58.5,50.2,30.06,NE,45,1.1,2.7,74,0.00,,,0.00,WUHU216HW,2013-05-05 01:04:00,
2013-05-04 21:09:00,58.3,50.0,30.06,NNE,23,1.1,3.1,74,0.00,,,0.00,WUHU216HW,2013-05-05 01:09:00,
2013-05-04 21:14:00,58.3,50.0,30.06,ENE,68,1.1,3.1,74,0.00,,,0.00,WUHU216HW,2013-05-05 01:14:00,
2013-05-04 21:19:00,58.3,50.0,30.06,ENE,68,2.5,2.5,74,0.00,,,0.00,WUHU216HW,2013-05-05 01:19:00,
2013-05-04 21:24:00,58.1,49.9,30.06,NE,45,1.6,2.5,74,0.00,,,0.00,WUHU216HW,2013-05-05 01:24:00,
2013-05-04 21:29:00,58.1,49.9,30.06,ENE,68,2.2,2.5,74,0.00,,,0.00,WUHU216HW,2013-05-05 01:29:00,
2013-05-04 21:34:00,58.0,49.7,30.06,East,90,0.0,2.5,74,0.00,,,0.00,WUHU216HW,2013-05-05 01:34:00,
2013-05-04 21:39:00,58.0,49.7,30.06,East,90,1.1,2.9,74,0.00,,,0.00,WUHU216HW,2013-05-05 01:39:00,
2013-05-04 21:44:00,58.0,49.7,30.06,ENE,68,3.1,3.4,74,0.00,,,0.00,WUHU216HW,2013-05-05 01:44:00,
2013-05-04 21:49:00,58.0,49.7,30.06,ENE,68,1.1,3.4,74,0.00,,,0.00,WUHU216HW,2013-05-05 01:49:00,
2013-05-04 21:54:00,58.0,49.7,30.06,East,90,1.6,2.7,74,0.00,,,0.00,WUHU216HW,2013-05-05 01:54:00,
2013-05-04 21:59:00,58.0,49.7,30.06,East,90,1.1,2.5,74,0.00,,,0.00,WUHU216HW,2013-05-05 01:59:00,
2013-05-04 22:04:00,57.8,49.5,30.06,NE,45,1.6,2.9,74,0.00,,,0.00,WUHU216HW,2013-05-05 02:04:00,
2013-05-04 22:09:00,57.6,49.3,30.06,East,90,1.6,4.0,74,0.00,,,0.00,WUHU216HW,2013-05-05 02:09:00,
2013-05-04 22:14:00,57.6,49.3,30.06,ENE,68,1.8,4.0,74,0.00,,,0.00,WUHU216HW,2013-05-05 02:14:00,
2013-05-04 22:19:00,57.6,49.3,30.07,ENE,68,2.0,3.1,74,0.00,,,0.00,WUHU216HW,2013-05-05 02:19:00,
2013-05-04 22:24:00,57.6,49.3,30.07,East,90,1.6,3.1,74,0.00,,,0.00,WUHU216HW,2013-05-05 02:24:00,
2013-05-04 22:29:00,57.4,49.1,30.06,East,90,1.8,2.5,74,0.00,,,0.00,WUHU216HW,2013-05-05 02:29:00,
2013-05-04 22:34:00,57.2,49.3,30.06,ENE,68,2.2,2.5,75,0.00,,,0.00,WUHU216HW,2013-05-05 02:34:00,
2013-05-04 22:39:00,57.2,49.0,30.06,ENE,68,1.3,3.8,74,0.00,,,0.00,WUHU216HW,2013-05-05 02:39:00,
2013-05-04 22:44:00,57.1,48.8,30.06,ESE,113,0.7,3.8,74,0.00,,,0.00,WUHU216HW,2013-05-05 02:44:00,
2013-05-04 22:49:00,56.9,48.6,30.06,ESE,113,0.7,5.1,74,0.00,,,0.00,WUHU216HW,2013-05-05 02:49:00,
2013-05-04 22:54:00,56.9,49.0,30.06,East,90,1.8,5.1,75,0.00,,,0.00,WUHU216HW,2013-05-05 02:54:00,
2013-05-04 22:59:00,56.9,49.0,30.06,East,90,1.8,2.5,75,0.00,,,0.00,WUHU216HW,2013-05-05 02:59:00,
2013-05-04 23:04:00,56.9,49.0,30.06,NE,45,1.1,2.9,75,0.00,,,0.00,WUHU216HW,2013-05-05 03:04:00,
2013-05-04 23:09:00,56.7,48.8,30.06,East,90,1.1,2.9,75,0.00,,,0.00,WUHU216HW,2013-05-05 03:09:00,
2013-05-04 23:14:00,56.7,48.8,30.06,NE,45,1.8,2.5,75,0.00,,,0.00,WUHU216HW,2013-05-05 03:14:00,
2013-05-04 23:19:00,56.5,48.6,30.06,East,90,1.1,2.5,75,0.00,,,0.00,WUHU216HW,2013-05-05 03:19:00,
2013-05-04 23:24:00,56.5,48.6,30.06,NE,45,0.9,2.7,75,0.00,,,0.00,WUHU216HW,2013-05-05 03:24:00,
2013-05-04 23:29:00,56.5,48.6,30.05,NE,45,1.6,2.9,75,0.00,,,0.00,WUHU216HW,2013-05-05 03:29:00,
2013-05-04 23:34:00,56.3,48.5,30.05,ESE,113,3.6,3.8,75,0.00,,,0.00,WUHU216HW,2013-05-05 03:34:00,
2013-05-04 23:39:00,56.2,48.3,30.05,ENE,68,1.3,3.8,75,0.00,,,0.00,WUHU216HW,2013-05-05 03:39:00,
2013-05-04 23:44:00,56.3,48.5,30.05,ENE,68,1.8,3.6,75,0.00,,,0.00,WUHU216HW,2013-05-05 03:44:00,
2013-05-04 23:49:00,56.2,48.3,30.04,East,90,1.6,2.2,75,0.00,,,0.00,WUHU216HW,2013-05-05 03:49:00,
2013-05-04 23:54:00,56.2,48.6,30.05,ESE,113,0.9,3.1,76,0.00,,,0.00,WUHU216HW,2013-05-05 03:54:00,
2013-05-04 23:59:00,56.0,48.5,30.04,ENE,68,0.9,3.1,76,0.00,,,0.00,WUHU216HW,2013-05-05 03:59:00,